This is the latest recevied weather packets stored in our database for station/object F4FEB-14. If no packets are shown the sender has not sent any weather packets the latest 10 day(s).
| Time | Temp. | Humidity | Pressure | Rain* | Wind** | Luminosity | Snow |
|---|---|---|---|---|---|---|---|
| 1777539506 | 22.22° C | 59% | 1020.5 hPa | 0 mm | - | - | - |
| 1777538902 | 21.11° C | 60% | 1020.6 hPa | 0 mm | - | - | - |
| 1777538602 | 21.67° C | 57% | 1020.6 hPa | 0 mm | - | - | - |
| 1777538301 | 21.11° C | 61% | 1020.5 hPa | 0 mm | - | - | - |
| 1777537698 | 20.56° C | 62% | 1020.5 hPa | 0 mm | - | - | - |
| 1777537397 | 21.11° C | 66% | 1020.5 hPa | 0 mm | - | - | - |
| 1777537096 | 20.56° C | 68% | 1020.5 hPa | 0 mm | - | - | - |
| 1777536794 | 19.44° C | 72% | 1020.4 hPa | 0 mm | - | - | - |
| 1777536192 | 19.44° C | 77% | 1020.4 hPa | 0 mm | - | - | - |
| 1777535890 | 18.89° C | 80% | 1020.3 hPa | 0 mm | - | - | - |
| 1777535588 | 18.33° C | 83% | 1020.3 hPa | 0 mm | - | - | - |
| 1777535287 | 17.78° C | 87% | 1020.3 hPa | 0 mm | - | - | - |
| 1777534986 | 17.22° C | 91% | 1020.4 hPa | 0 mm | - | - | - |
| 1777534685 | 17.22° C | 91% | 1020.3 hPa | 0 mm | - | - | - |
| 1777534384 | 16.67° C | 91% | 1020.4 hPa | 0 mm | - | - | - |
| 1777534084 | 16.67° C | 94% | 1020.4 hPa | 0 mm | - | - | - |
| 1777533783 | 16.67° C | 92% | 1020.3 hPa | 0 mm | - | - | - |
| 1777533481 | 16.11° C | 95% | 1020.2 hPa | 0 mm | - | - | - |
| 1777533180 | 16.11° C | 99% | 1020.3 hPa | 0 mm | - | - | - |
| 1777532879 | 15.56° C | 97% | 1020.2 hPa | 0 mm | - | - | - |
| 1777532578 | 16.11° C | 100% | 1020.2 hPa | 0 mm | - | - | - |
| 1777532277 | 15.56° C | 99% | 1020.1 hPa | 0 mm | - | - | - |
| 1777531975 | 16.67° C | 89% | 1020.1 hPa | 0 mm | - | - | - |
| 1777531674 | 16.11° C | 95% | 1020.1 hPa | 0 mm | - | - | - |
| 1777531373 | 15.56° C | 96% | 1020.2 hPa | 0 mm | - | - | - |
* Rain latest hour (hover to see other rain measurements)
** Current wind speed in m/s (hover to see current wind gust speed)